Powrót do katalogu

FENGYUN 1C DEB

AktywnySSO
NORAD 37437·DEBRIS·🇨🇳 China

Wystrzelony May 10, 1999 z Taiyuan Satellite Launch Center

Loading…

Następne Przeloty (najbliższe 24 godziny)

TLE

Starzejące sięSource: Space-Track

Epoka: Sep 8, 2026, 04:57 UTC

1 37437U 99025EHF 26251.20654144  .00000696  00000-0  33063-3 0  9990
2 37437  98.6053 240.0953 0111596 351.2378  69.1542 14.19381610678138

Śledź FENGYUN 1C DEB w czasie rzeczywistym z AllMySat

Download on the App Store